When you browse on this site, cookies collect data to enhance your experience and personalize the content and advertising you see.
Visit our Privacy Policy to learn more. By continuing to use the site, you agree to this use of cookies and data.
  • In Czech Republic
  • List of Countries
  • For 7 days
  • Water Temperature
  • Weather Map
  • Weather Widgets
  • user-avatar
    Login

    Hourly Weather Antofagasta

    Today, 1 June, Monday

    Time Temperature Precipitation Wind Pressure Humidity
    00:00 +14°C° 0 mm 1 mps 763 mmHg 89%
    01:00 +14°C° 0 mm 2 mps 763 mmHg 91%
    02:00 +14°C° 0 mm 2 mps 763 mmHg 91%
    03:00 +13°C° 0 mm 2 mps 762 mmHg 91%
    04:00 +13°C° 0 mm 2 mps 762 mmHg 91%
    05:00 +15°C° 0 mm 2 mps 762 mmHg 87%
    06:00 +16°C° 0 mm 3 mps 763 mmHg 83%
    07:00 +17°C° 0 mm 3 mps 763 mmHg 80%
    08:00 +20°C° 0 mm 3 mps 763 mmHg 67%
    09:00 +23°C° 0 mm 4 mps 763 mmHg 55%
    10:00 +27°C° 0 mm 4 mps 763 mmHg 42%
    11:00 +27°C° 0 mm 4 mps 762 mmHg 44%
    12:00 +28°C° 0 mm 5 mps 761 mmHg 45%
    13:00 +28°C° 0 mm 5 mps 760 mmHg 46%
    14:00 +26°C° 0 mm 5 mps 760 mmHg 52%
    15:00 +25°C° 0 mm 5 mps 760 mmHg 59%
    16:00 +22°C° 0 mm 5 mps 760 mmHg 65%
    17:00 +20°C° 0 mm 4 mps 761 mmHg 73%
    18:00 +18°C° 0 mm 4 mps 761 mmHg 80%
    19:00 +16°C° 0 mm 3 mps 762 mmHg 88%
    20:00 +16°C° 0 mm 3 mps 762 mmHg 84%
    21:00 +16°C° 0 mm 3 mps 762 mmHg 80%
    22:00 +16°C° 0 mm 3 mps 762 mmHg 75%
    23:00 +16°C° 0 mm 3 mps 762 mmHg 74%

    Tomorrow, 2 June, Tuesday

    Time Temperature Precipitation Wind Pressure Humidity
    00:00 +16°C° 0 mm 3 mps 761 mmHg 73%
    01:00 +16°C° 0 mm 3 mps 761 mmHg 71%
    02:00 +16°C° 0 mm 3 mps 761 mmHg 71%
    03:00 +16°C° 0 mm 3 mps 760 mmHg 71%
    04:00 +16°C° 0 mm 3 mps 760 mmHg 70%
    05:00 +17°C° 0 mm 3 mps 760 mmHg 66%
    06:00 +17°C° 0 mm 3 mps 760 mmHg 61%
    07:00 +18°C° 0 mm 3 mps 761 mmHg 57%
    08:00 +21°C° 0 mm 3 mps 760 mmHg 49%
    09:00 +25°C° 0 mm 3 mps 760 mmHg 40%
    10:00 +28°C° 0 mm 3 mps 760 mmHg 32%
    11:00 +28°C° 0 mm 4 mps 759 mmHg 36%
    12:00 +28°C° 0 mm 4 mps 759 mmHg 40%
    13:00 +28°C° 0 mm 4 mps 758 mmHg 44%
    14:00 +26°C° 0 mm 4 mps 758 mmHg 49%
    15:00 +25°C° 0 mm 4 mps 758 mmHg 55%
    16:00 +23°C° 0 mm 4 mps 758 mmHg 61%
    17:00 +20°C° 0 mm 4 mps 758 mmHg 70%
    18:00 +18°C° 0 mm 3 mps 758 mmHg 80%
    19:00 +14°C° 0 mm 3 mps 759 mmHg 89%
    20:00 +15°C° 0 mm 2 mps 759 mmHg 89%
    21:00 +14°C° 0 mm 2 mps 759 mmHg 89%
    22:00 +14°C° 0 mm 2 mps 760 mmHg 90%
    23:00 +13°C° 0 mm 2 mps 760 mmHg 91%

    Day after tomorrow, 3 June, Wednesday

    Time Temperature Precipitation Wind Pressure Humidity
    00:00 +13°C° 0 mm 2 mps 760 mmHg 92%
    01:00 +13°C° 0 mm 2 mps 760 mmHg 93%
    02:00 +12°C° 0 mm 2 mps 760 mmHg 93%
    03:00 +12°C° 0 mm 2 mps 760 mmHg 93%
    04:00 +12°C° 0 mm 2 mps 760 mmHg 93%
    05:00 +13°C° 0 mm 2 mps 760 mmHg 93%
    06:00 +13°C° 0 mm 2 mps 760 mmHg 93%
    07:00 +14°C° 0 mm 2 mps 761 mmHg 93%
    08:00 +16°C° 0 mm 2 mps 760 mmHg 83%
    09:00 +19°C° 0 mm 3 mps 760 mmHg 73%
    10:00 +21°C° 0 mm 3 mps 760 mmHg 62%
    11:00 +21°C° 0 mm 4 mps 760 mmHg 62%
    12:00 +21°C° 0 mm 4 mps 759 mmHg 62%
    13:00 +22°C° 0 mm 5 mps 758 mmHg 62%
    14:00 +21°C° 0 mm 5 mps 758 mmHg 68%
    15:00 +19°C° 0 mm 4 mps 758 mmHg 74%
    16:00 +18°C° 0 mm 4 mps 758 mmHg 80%
    17:00 +17°C° 0 mm 4 mps 759 mmHg 84%
    18:00 +15°C° 0 mm 4 mps 759 mmHg 87%
    19:00 +14°C° 0 mm 3 mps 760 mmHg 91%
    20:00 +14°C° 0 mm 3 mps 760 mmHg 90%
    21:00 +13°C° 0 mm 3 mps 760 mmHg 90%
    22:00 +13°C° 0 mm 2 mps 761 mmHg 90%
    23:00 +13°C° 0 mm 2 mps 761 mmHg 91%

    4 June, Thursday

    Time Temperature Precipitation Wind Pressure Humidity
    00:00 +12°C° 0 mm 2 mps 761 mmHg 92%
    01:00 +10°C° 0 mm 2 mps 761 mmHg 92%
    02:00 +10°C° 0 mm 2 mps 761 mmHg 92%
    03:00 +9°C° 0 mm 3 mps 761 mmHg 93%
    04:00 +9°C° 0 mm 3 mps 761 mmHg 93%
    05:00 +10°C° 0 mm 3 mps 762 mmHg 93%
    06:00 +11°C° 0 mm 3 mps 762 mmHg 93%
    07:00 +13°C° 0 mm 2 mps 762 mmHg 92%
    08:00 +14°C° 0 mm 3 mps 763 mmHg 83%
    09:00 +16°C° 0 mm 3 mps 763 mmHg 74%
    10:00 +18°C° 0 mm 3 mps 763 mmHg 64%
    11:00 +19°C° 0 mm 4 mps 763 mmHg 60%
    12:00 +19°C° 0 mm 4 mps 762 mmHg 57%
    13:00 +20°C° 0 mm 5 mps 762 mmHg 53%
    14:00 +20°C° 0 mm 5 mps 762 mmHg 52%
    15:00 +19°C° 0 mm 5 mps 762 mmHg 51%
    16:00 +19°C° 0 mm 5 mps 762 mmHg 50%
    17:00 +15°C° 0 mm 4 mps 762 mmHg 58%
    18:00 +13°C° 0 mm 4 mps 762 mmHg 66%
    19:00 +11°C° 0 mm 3 mps 762 mmHg 74%
    20:00 +11°C° 0 mm 4 mps 762 mmHg 65%
    21:00 +12°C° 0 mm 4 mps 762 mmHg 55%
    22:00 +13°C° 0 mm 4 mps 762 mmHg 46%
    23:00 +13°C° 0 mm 5 mps 761 mmHg 43%

    5 June, Friday

    Time Temperature Precipitation Wind Pressure Humidity
    00:00 +13°C° 0 mm 5 mps 761 mmHg 40%
    01:00 +13°C° 0 mm 5 mps 761 mmHg 37%
    02:00 +13°C° 0 mm 4 mps 761 mmHg 34%
    03:00 +13°C° 0 mm 4 mps 760 mmHg 31%
    04:00 +13°C° 0 mm 4 mps 760 mmHg 28%
    05:00 +14°C° 0 mm 4 mps 760 mmHg 25%
    06:00 +15°C° 0 mm 4 mps 761 mmHg 23%
    07:00 +17°C° 0 mm 4 mps 761 mmHg 20%
    08:00 +20°C° 0 mm 4 mps 761 mmHg 17%
    09:00 +25°C° 0 mm 4 mps 760 mmHg 15%
    10:00 +29°C° 0 mm 4 mps 760 mmHg 12%
    11:00 +29°C° 0 mm 4 mps 759 mmHg 13%
    12:00 +30°C° 0 mm 4 mps 759 mmHg 14%
    13:00 +30°C° 0 mm 4 mps 758 mmHg 15%
    14:00 +29°C° 0 mm 4 mps 758 mmHg 17%
    15:00 +28°C° 0 mm 4 mps 758 mmHg 18%
    16:00 +26°C° 0 mm 3 mps 758 mmHg 20%
    17:00 +22°C° 0 mm 3 mps 758 mmHg 31%
    18:00 +18°C° 0 mm 2 mps 758 mmHg 42%
    19:00 +15°C° 0 mm 2 mps 759 mmHg 54%
    20:00 +15°C° 0 mm 2 mps 759 mmHg 52%
    21:00 +14°C° 0 mm 3 mps 759 mmHg 51%
    22:00 +14°C° 0 mm 3 mps 759 mmHg 50%
    23:00 +14°C° 0 mm 3 mps 759 mmHg 52%

    6 June, Saturday

    Time Temperature Precipitation Wind Pressure Humidity
    00:00 +14°C° 0 mm 3 mps 759 mmHg 54%
    01:00 +14°C° 0 mm 2 mps 759 mmHg 56%
    02:00 +14°C° 0 mm 2 mps 759 mmHg 58%
    03:00 +13°C° 0 mm 2 mps 759 mmHg 59%
    04:00 +13°C° 0 mm 2 mps 759 mmHg 61%
    05:00 +14°C° 0 mm 2 mps 759 mmHg 49%
    06:00 +16°C° 0 mm 2 mps 760 mmHg 37%
    07:00 +17°C° 0 mm 2 mps 760 mmHg 25%
    08:00 +21°C° 0 mm 2 mps 760 mmHg 21%
    09:00 +26°C° 0 mm 3 mps 760 mmHg 18%
    10:00 +30°C° 0 mm 3 mps 760 mmHg 14%
    11:00 +28°C° 0 mm 3 mps 759 mmHg 23%
    12:00 +27°C° 0 mm 3 mps 759 mmHg 32%
    13:00 +26°C° 0 mm 4 mps 758 mmHg 41%
    14:00 +25°C° 0 mm 4 mps 758 mmHg 45%
    15:00 +24°C° 0 mm 3 mps 758 mmHg 49%
    16:00 +22°C° 0 mm 3 mps 758 mmHg 53%
    17:00 +20°C° 0 mm 3 mps 758 mmHg 61%
    18:00 +17°C° 0 mm 3 mps 759 mmHg 69%
    19:00 +15°C° 0 mm 2 mps 759 mmHg 76%
    20:00 +15°C° 0 mm 2 mps 759 mmHg 71%
    21:00 +14°C° 0 mm 3 mps 759 mmHg 66%
    22:00 +16°C° 0 mm 3 mps 759 mmHg 61%
    23:00 +14°C° 0 mm 3 mps 759 mmHg 61%
    Show more